• In Netherlands
  • List of Countries
  • For 7 days
  • Water Temperature
  • Satellite Maps
  • Weather Map
  • Weather Widgets
  • user-avatar
    Login

    Hourly Weather Ondjiwa

    Today, 29 April, Saturday

    Time Temperature Precipitation Wind Pressure Humidity
    00:00 +21°C° 0 mm 4 mps 670 mmHg 53%
    01:00 +21°C° 0 mm 4 mps 670 mmHg 57%
    02:00 +20°C° 0 mm 4 mps 670 mmHg 58%
    03:00 +20°C° 0 mm 4 mps 670 mmHg 60%
    04:00 +20°C° 0 mm 4 mps 670 mmHg 61%
    05:00 +20°C° 0 mm 4 mps 670 mmHg 63%
    06:00 +20°C° 0 mm 4 mps 671 mmHg 65%
    07:00 +20°C° 0 mm 5 mps 671 mmHg 65%
    08:00 +22°C° 0 mm 5 mps 672 mmHg 58%
    09:00 +25°C° 0 mm 5 mps 672 mmHg 50%
    10:00 +27°C° 0 mm 6 mps 672 mmHg 43%
    11:00 +29°C° 0 mm 5 mps 672 mmHg 39%
    12:00 +30°C° 0 mm 5 mps 671 mmHg 34%
    13:00 +33°C° 0 mm 4 mps 671 mmHg 30%
    14:00 +33°C° 0 mm 4 mps 670 mmHg 30%
    15:00 +32°C° 0 mm 4 mps 670 mmHg 29%
    16:00 +31°C° 0 mm 3 mps 669 mmHg 29%
    17:00 +29°C° 0 mm 3 mps 669 mmHg 34%
    18:00 +27°C° 0 mm 3 mps 669 mmHg 39%
    19:00 +25°C° 0 mm 3 mps 669 mmHg 44%
    20:00 +24°C° 0 mm 3 mps 669 mmHg 46%
    21:00 +22°C° 0 mm 3 mps 669 mmHg 48%
    22:00 +22°C° 0 mm 3 mps 670 mmHg 50%
    23:00 +21°C° 0 mm 3 mps 670 mmHg 52%

    Tomorrow, 30 April, Sunday

    Time Temperature Precipitation Wind Pressure Humidity
    00:00 +21°C° 0 mm 3 mps 670 mmHg 54%
    01:00 +20°C° 0 mm 4 mps 670 mmHg 56%
    02:00 +20°C° 0 mm 4 mps 670 mmHg 58%
    03:00 +19°C° 0 mm 4 mps 669 mmHg 59%
    04:00 +19°C° 0 mm 4 mps 669 mmHg 60%
    05:00 +19°C° 0 mm 4 mps 670 mmHg 60%
    06:00 +19°C° 0 mm 4 mps 670 mmHg 61%
    07:00 +19°C° 0 mm 4 mps 671 mmHg 62%
    08:00 +21°C° 0 mm 4 mps 671 mmHg 53%
    09:00 +25°C° 0 mm 5 mps 672 mmHg 45%
    10:00 +27°C° 0 mm 5 mps 673 mmHg 37%
    11:00 +29°C° 0 mm 5 mps 672 mmHg 33%
    12:00 +30°C° 0 mm 4 mps 671 mmHg 29%
    13:00 +32°C° 0 mm 4 mps 671 mmHg 26%
    14:00 +32°C° 0 mm 4 mps 670 mmHg 25%
    15:00 +32°C° 0 mm 4 mps 670 mmHg 25%
    16:00 +32°C° 0 mm 4 mps 669 mmHg 24%
    17:00 +28°C° 0 mm 3 mps 669 mmHg 28%
    18:00 +26°C° 0 mm 3 mps 669 mmHg 32%
    19:00 +24°C° 0 mm 3 mps 669 mmHg 36%
    20:00 +22°C° 0 mm 3 mps 669 mmHg 37%
    21:00 +21°C° 0 mm 3 mps 669 mmHg 38%
    22:00 +20°C° 0 mm 3 mps 670 mmHg 39%
    23:00 +20°C° 0 mm 3 mps 670 mmHg 40%

    Day after tomorrow, 1 May, Monday

    Time Temperature Precipitation Wind Pressure Humidity
    00:00 +19°C° 0 mm 3 mps 669 mmHg 42%
    01:00 +18°C° 0 mm 3 mps 669 mmHg 43%
    02:00 +18°C° 0 mm 3 mps 669 mmHg 45%
    03:00 +17°C° 0 mm 3 mps 669 mmHg 48%
    04:00 +16°C° 0 mm 3 mps 669 mmHg 50%
    05:00 +16°C° 0 mm 3 mps 669 mmHg 51%
    06:00 +16°C° 0 mm 3 mps 670 mmHg 52%
    07:00 +16°C° 0 mm 3 mps 670 mmHg 52%
    08:00 +19°C° 0 mm 4 mps 671 mmHg 45%
    09:00 +22°C° 0 mm 5 mps 671 mmHg 38%
    10:00 +26°C° 0 mm 5 mps 672 mmHg 31%
    11:00 +27°C° 0 mm 5 mps 671 mmHg 28%
    12:00 +29°C° 0 mm 4 mps 671 mmHg 24%
    13:00 +30°C° 0 mm 4 mps 670 mmHg 21%
    14:00 +30°C° 0 mm 3 mps 670 mmHg 21%
    15:00 +30°C° 0 mm 3 mps 669 mmHg 21%
    16:00 +30°C° 0 mm 3 mps 669 mmHg 20%
    17:00 +27°C° 0 mm 3 mps 669 mmHg 25%
    18:00 +25°C° 0 mm 3 mps 669 mmHg 29%
    19:00 +21°C° 0 mm 3 mps 669 mmHg 33%
    20:00 +21°C° 0 mm 3 mps 669 mmHg 34%
    21:00 +20°C° 0 mm 3 mps 669 mmHg 36%
    22:00 +19°C° 0 mm 3 mps 669 mmHg 37%
    23:00 +19°C° 0 mm 3 mps 669 mmHg 39%

    2 May, Tuesday

    Time Temperature Precipitation Wind Pressure Humidity
    00:00 +18°C° 0 mm 3 mps 669 mmHg 41%
    01:00 +18°C° 0 mm 3 mps 669 mmHg 43%
    02:00 +17°C° 0 mm 3 mps 669 mmHg 47%
    03:00 +17°C° 0 mm 3 mps 668 mmHg 51%
    04:00 +16°C° 0 mm 3 mps 668 mmHg 56%
    05:00 +16°C° 0 mm 3 mps 669 mmHg 57%
    06:00 +16°C° 0 mm 3 mps 669 mmHg 59%
    07:00 +16°C° 0 mm 3 mps 670 mmHg 60%
    08:00 +19°C° 0 mm 4 mps 670 mmHg 51%
    09:00 +22°C° 0 mm 5 mps 671 mmHg 41%
    10:00 +26°C° 0 mm 6 mps 672 mmHg 31%
    11:00 +28°C° 0 mm 6 mps 671 mmHg 28%
    12:00 +29°C° 0 mm 5 mps 670 mmHg 26%
    13:00 +30°C° 0 mm 5 mps 669 mmHg 23%
    14:00 +30°C° 0 mm 4 mps 669 mmHg 24%
    15:00 +29°C° 0 mm 4 mps 669 mmHg 24%
    16:00 +29°C° 0 mm 4 mps 668 mmHg 25%
    17:00 +27°C° 0 mm 3 mps 668 mmHg 30%
    18:00 +25°C° 0 mm 3 mps 668 mmHg 35%
    19:00 +21°C° 0 mm 2 mps 668 mmHg 40%
    20:00 +21°C° 0 mm 3 mps 668 mmHg 43%
    21:00 +20°C° 0 mm 3 mps 669 mmHg 45%
    22:00 +19°C° 0 mm 3 mps 669 mmHg 47%
    23:00 +19°C° 0 mm 3 mps 669 mmHg 49%

    3 May, Wednesday

    Time Temperature Precipitation Wind Pressure Humidity
    00:00 +18°C° 0 mm 3 mps 669 mmHg 51%
    01:00 +18°C° 0 mm 3 mps 668 mmHg 54%
    02:00 +17°C° 0 mm 3 mps 668 mmHg 56%
    03:00 +17°C° 0 mm 3 mps 668 mmHg 58%
    04:00 +17°C° 0 mm 3 mps 668 mmHg 61%
    05:00 +17°C° 0 mm 3 mps 668 mmHg 61%
    06:00 +17°C° 0 mm 3 mps 669 mmHg 62%
    07:00 +17°C° 0 mm 3 mps 669 mmHg 62%
    08:00 +20°C° 0 mm 4 mps 670 mmHg 53%
    09:00 +23°C° 0 mm 5 mps 671 mmHg 43%
    10:00 +27°C° 0 mm 6 mps 671 mmHg 33%
    11:00 +28°C° 0 mm 5 mps 671 mmHg 31%
    12:00 +29°C° 0 mm 5 mps 670 mmHg 28%
    13:00 +30°C° 0 mm 5 mps 669 mmHg 26%
    14:00 +30°C° 0 mm 4 mps 669 mmHg 26%
    15:00 +30°C° 0 mm 4 mps 668 mmHg 26%
    16:00 +30°C° 0 mm 4 mps 668 mmHg 26%
    17:00 +27°C° 0 mm 3 mps 668 mmHg 32%
    18:00 +25°C° 0 mm 3 mps 668 mmHg 38%
    19:00 +22°C° 0 mm 3 mps 668 mmHg 43%
    20:00 +21°C° 0 mm 3 mps 668 mmHg 46%
    21:00 +21°C° 0 mm 3 mps 669 mmHg 48%
    22:00 +20°C° 0 mm 3 mps 669 mmHg 51%
    23:00 +20°C° 0 mm 3 mps 668 mmHg 53%

    4 May, Thursday

    Time Temperature Precipitation Wind Pressure Humidity
    00:00 +19°C° 0 mm 3 mps 668 mmHg 55%
    01:00 +19°C° 0 mm 3 mps 668 mmHg 57%
    02:00 +18°C° 0 mm 3 mps 668 mmHg 59%
    03:00 +18°C° 0 mm 3 mps 668 mmHg 61%
    04:00 +17°C° 0 mm 3 mps 668 mmHg 63%
    05:00 +17°C° 0 mm 3 mps 668 mmHg 63%
    06:00 +17°C° 0 mm 3 mps 669 mmHg 63%
    07:00 +17°C° 0 mm 3 mps 669 mmHg 63%
    08:00 +21°C° 0 mm 4 mps 670 mmHg 53%
    09:00 +25°C° 0 mm 5 mps 670 mmHg 42%
    10:00 +28°C° 0 mm 6 mps 671 mmHg 32%
    11:00 +29°C° 0 mm 5 mps 670 mmHg 29%
    12:00 +30°C° 0 mm 4 mps 670 mmHg 26%
    13:00 +32°C° 0 mm 4 mps 669 mmHg 23%
    14:00 +31°C° 0 mm 3 mps 669 mmHg 23%
    15:00 +31°C° 0 mm 3 mps 668 mmHg 23%
    16:00 +31°C° 0 mm 3 mps 668 mmHg 23%
    17:00 +28°C° 0 mm 3 mps 668 mmHg 28%
    18:00 +26°C° 0 mm 3 mps 668 mmHg 33%
    19:00 +24°C° 0 mm 3 mps 668 mmHg 38%
    20:00 +22°C° 0 mm 3 mps 668 mmHg 40%
    21:00 +21°C° 0 mm 3 mps 668 mmHg 42%
    22:00 +21°C° 0 mm 3 mps 668 mmHg 44%
    23:00 +20°C° 0 mm 3 mps 668 mmHg 47%
    Show more